sat.trackr.live / text

‹ back to catalog

2023-085AK

NORAD 57037 · 2023-085AK

PAYLOAD ACTIVE UNKNOWN

§ Identity

Operator
Country
PRC
Launch date
2023-06-15
Launch site
TAISC
Launch vehicle
Mass (kg)
RCS (m²)

External: N2YO · Heavens-Above · Gunter

§ Orbital elements

Epoch: 2026-05-25T04:37:00.792192Z

Period
94.86 min
Inclination
97.4843°
Eccentricity
0.0006660
Mean motion
15.18017080 rev/d
Perigee alt
507.2 km
Apogee alt
516.4 km
Semi-major
6,890.0 km
B*
1.8353e-4
RAAN
250.8335°
Arg perigee
170.6094°
Mean anomaly
189.5266°
Rev number
16,282

§ Raw data

2023-085AK1 57037U 23085AK  26145.19237028  .00003667  00000+0  18353-3 0  99942 57037  97.4843 250.8335 0006660 170.6094 189.5266 15.18017080162827

JSON: /api/v1/satellites/57037 · /tle

For live sub-satellite position, see the globe view (requires WebGL).

§ Visibility from observer

Set your observer location to see the next 7 days of passes ≥ 10°. The values pass through the URL so the page stays shareable.

No JS? Fill the form by hand. The geolocation button needs JavaScript.